Powrót do katalogu

STARLINK-31379

AktywnyŁącznośćVLEO
NORAD 58984·PAYLOAD·🇺🇸 United States

Wystrzelony Feb 15, 2024 z Vandenberg Space Force Base

Loading…

Następne Przeloty (najbliższe 24 godziny)

TLE

ŚwieżeSource: CelesTrak SupGP

Epoka: Sep 15, 2026, 03:32 UTC

1 58984C 24031V   26258.14770833  .00044657  00000+0  13194-2 0  2583
2 58984  53.1571 134.6605 0001290  81.1944  94.7534 15.34369211    10

Śledź STARLINK-31379 w czasie rzeczywistym z AllMySat

Download on the App Store